Skip Page Navigation
NASA JPL Caltech
NASA Logo - Jet Propulsion Laboratory + View the NASA Portal
+ Near-Earth Object (NEO) Program
Search JPL
JPL Home Earth Solar System Stars & Galaxies Technology
JPL Solar System Dynamics
BODIES ORBITS EPHEMERIDES TOOLS PHYSICAL DATA DISCOVERY FAQ SITE MAP
JPL Small-Body Database Browser
Search: [ help ]  
131186 Pauluckas (2001 DS)
Classification: Main-belt Asteroid          SPK-ID: 2131186
Ephemeris | Orbit Diagram | Orbital Elements | Physical Parameters | Discovery Circumstances ]

[ show orbit diagram ]
Orbital Elements at Epoch 2456400.5 (2013-Apr-18.0) TDB
Reference: MPO245076 (heliocentric ecliptic J2000)
 Element Value Uncertainty (1-sigma)   Units 
e 0.1207336 n/a  
a 2.7144303 n/a AU
q 2.3867074 n/a AU
i 4.49228 n/a deg
node 128.86714 n/a deg
peri 95.42080 n/a deg
M 197.97492 n/a deg
tp 2457135.6843135
(2015-Apr-23.18431350)
n/a JED
period 1633.4900304
4.47
n/a
n/a
d
yr
n 0.22038702 n/a deg/d
Q 3.0421532 n/a AU
  Orbit Determination Parameters
   # obs. used (total)      250  
   first obs. used      2001-??-??  
   last obs. used      2012-11-06  
   # oppositions      9  
   planetary ephem.      DE403  
   condition code      0  
   fit RMS      0.50  
   data source      MPC:mpu  
   producer      MPCLINUX  

Additional Information
 T_jup = 3.346 

Ephemeris | Orbit Diagram | Orbital Elements | Physical Parameters | Discovery Circumstances ]

Physical Parameter Table
Parameter Symbol Value Units Sigma Reference Notes
absolute magnitude H 16.1 mag n/a MPC13812  

131186 Pauluckas           Discovered 2001 Feb. 16 by P. Holvorcem and M. Schwartz at the Tenagra II Observatory, Nogales.
Paul Luckas (b. 1962) has shown great dedication in creating and maintaining a fully automated observatory in Western Australia for supernova search, minor planet discovery and near-earth-asteroid tracking. He belongs to the small and dedicated amateur group that provides valuable data from southern skies.
NOTE: some special characters may not display properly (any characters within {} are an attempt to place the proper accent above a character)
Reference: 20070926/MPCPages.arcLast Updated: 2007-09-30
Ephemeris | Orbit Diagram | Orbital Elements | Physical Parameters | Discovery Circumstances ]
ABOUT SSD CREDITS/AWARDS PRIVACY/COPYRIGHT GLOSSARY LINKS
FirstGov 2013-Jun-18 05:13 UT
(server date/time)  
NASA Home Page
Site Manager:   Donald K. Yeomans
Webmaster  Alan B. Chamberlin